sat.trackr.live / text

‹ back to catalog

SKYKRAFT-4D

NORAD 64898 · 2025-154K

PAYLOAD ACTIVE UNKNOWN

§ Identity

Operator
Country
AUS
Launch date
2025-07-23
Launch site
AFWTR
Launch vehicle
Mass (kg)
RCS (m²)

External: N2YO · Heavens-Above · Gunter

§ Orbital elements

Epoch: 2026-09-21T17:11:33.580896Z

Period
96.19 min
Inclination
97.6582°
Eccentricity
0.0002654
Mean motion
14.97068687 rev/d
Perigee alt
574.1 km
Apogee alt
577.8 km
Semi-major
6,954.1 km
B*
2.4396e-4
RAAN
326.9317°
Arg perigee
293.5142°
Mean anomaly
66.5801°
Rev number
6,173

§ Raw data

SKYKRAFT-4D1 64898U 25154K   26264.71636089  .00002755  00000+0  24396-3 0  99972 64898  97.6582 326.9317 0002654 293.5142  66.5801 14.97068687 61737

JSON: /api/v1/satellites/64898 · /tle

For live sub-satellite position, see the globe view (requires WebGL).

§ Visibility from observer

Set your observer location to see the next 7 days of passes ≥ 10°. The values pass through the URL so the page stays shareable.

No JS? Fill the form by hand. The geolocation button needs JavaScript.